timestamp,surface_pressure_avg,surface_temp_avg,battery_voltage,lat,long
2020-11-10 00:09:01+00:00,231.9814,8.5,12.65,47.84626,-54.09684
2020-11-10 00:19:01+00:00,232.9464,8.5,12.65,47.84626,-54.09684
2020-11-10 00:29:01+00:00,231.703,8.5,12.65,47.84626,-54.09684
2020-11-10 00:39:01+00:00,230.0848,8.5,12.65,47.84626,-54.09684
2020-11-10 00:49:01+00:00,227.4981,8.5,12.65,47.84626,-54.09684
2020-11-10 00:59:01+00:00,226.6848,8.47,12.65,47.84626,-54.09684
2020-11-10 01:09:01+00:00,225.6748,8.4,12.65,47.84626,-54.09684
2020-11-10 01:19:01+00:00,221.6598,8.4,12.65,47.84626,-54.09684
2020-11-10 01:29:01+00:00,218.4847,8.4,12.65,47.84626,-54.09684
2020-11-10 01:39:01+00:00,221.6364,8.4,12.65,47.84626,-54.09684
2020-11-10 01:49:01+00:00,227.8364,8.42,12.65,47.84626,-54.09684
2020-11-10 01:59:01+00:00,226.0448,8.5,12.65,47.84626,-54.09684
2020-11-10 02:09:01+00:00,225.0848,8.5,12.65,47.84626,-54.09684
2020-11-10 02:19:01+00:00,229.7397,8.5,12.65,47.84626,-54.09684
2020-11-10 02:29:01+00:00,234.3297,8.5,12.65,47.84626,-54.09684
2020-11-10 02:39:01+00:00,231.1798,8.52,12.65,47.84626,-54.09684
2020-11-10 02:49:01+00:00,228.6115,8.58,12.65,47.84626,-54.09684
2020-11-10 02:59:01+00:00,234.6565,8.59,12.65,47.84626,-54.09684
2020-11-10 03:09:01+00:00,241.6497,8.6,12.65,47.84626,-54.09684
2020-11-10 03:19:01+00:00,244.0814,8.6,12.65,47.84626,-54.09684
2020-11-10 03:29:01+00:00,248.3581,8.6,12.65,47.84626,-54.09684
2020-11-10 03:39:01+00:00,255.8981,8.6,12.65,47.84626,-54.09684
2020-11-10 03:49:01+00:00,259.1931,8.6,12.65,47.84626,-54.09684
2020-11-10 03:59:01+00:00,261.1797,8.58,12.65,47.84626,-54.09684
2020-11-10 04:09:01+00:00,270.6381,8.55,12.65,47.84626,-54.09684
2020-11-10 04:19:01+00:00,280.7598,8.56,12.65,47.84626,-54.09684
2020-11-10 04:29:01+00:00,279.8597,8.5,12.65,47.84626,-54.09684
2020-11-10 04:39:01+00:00,280.813,8.5,12.65,47.84626,-54.09684
2020-11-10 04:49:01+00:00,292.1147,8.5,12.65,47.84626,-54.09684
2020-11-10 04:59:01+00:00,301.2864,8.5,12.65,47.84626,-54.09684
2020-11-10 05:09:01+00:00,301.5063,8.5,12.65,47.84626,-54.09684
2020-11-10 05:19:01+00:00,303.2513,8.48,12.65,47.84626,-54.09684
2020-11-10 05:29:01+00:00,313.2746,8.47,12.65,47.84626,-54.09684
2020-11-10 05:39:01+00:00,317.0496,8.48,12.65,47.84626,-54.09684
2020-11-10 05:49:01+00:00,316.2629,8.46,12.65,47.84626,-54.09684
2020-11-10 05:59:01+00:00,318.7213,8.4,12.65,47.84626,-54.09684
2020-11-10 06:09:01+00:00,325.9514,8.44,12.65,47.84626,-54.09684
2020-11-10 06:19:01+00:00,328.218,8.45,12.65,47.84626,-54.09684
2020-11-10 06:29:01+00:00,326.2896,8.4,12.65,47.84626,-54.09684
2020-11-10 06:39:01+00:00,326.8446,8.4,12.65,47.84626,-54.09684
2020-11-10 06:49:01+00:00,326.1197,8.4,12.65,47.84626,-54.09684
2020-11-10 06:59:01+00:00,327.7346,8.4,12.65,47.84626,-54.09684
2020-11-10 07:09:01+00:00,325.758,8.4,12.65,47.84626,-54.09684
2020-11-10 07:19:01+00:00,320.248,8.4,12.65,47.84626,-54.09684
2020-11-10 07:29:01+00:00,323.3813,8.4,12.65,47.84626,-54.09684
2020-11-10 07:39:01+00:00,323.1714,8.4,12.65,47.84626,-54.09684
2020-11-10 07:49:01+00:00,316.6963,8.4,12.65,47.84626,-54.09684
2020-11-10 07:59:01+00:00,311.7896,8.4,12.65,47.84626,-54.09684
2020-11-10 08:09:01+00:00,315.3529,8.4,12.65,47.84626,-54.09684
2020-11-10 08:19:01+00:00,313.6746,8.4,12.65,47.84626,-54.09684
2020-11-10 08:29:01+00:00,306.3147,8.4,12.65,47.84626,-54.09684
2020-11-10 08:39:01+00:00,304.913,8.4,12.65,47.84626,-54.09684
2020-11-10 08:49:01+00:00,304.6013,8.4,12.65,47.84626,-54.09684
2020-11-10 08:59:01+00:00,295.093,8.4,12.65,47.84626,-54.09684
2020-11-10 09:09:01+00:00,286.3697,8.4,12.65,47.84626,-54.09684
2020-11-10 09:19:01+00:00,285.9898,8.4,12.65,47.84626,-54.09684
2020-11-10 09:29:01+00:00,284.6964,8.4,12.65,47.84626,-54.09684
2020-11-10 09:39:01+00:00,274.5814,8.4,12.65,47.84626,-54.09684
2020-11-10 09:49:01+00:00,269.1547,8.39,12.65,47.84626,-54.09684
2020-11-10 09:59:01+00:00,272.0414,8.4,12.65,47.84626,-54.09684
2020-11-10 10:09:01+00:00,263.818,8.4,12.65,47.84626,-54.09684
2020-11-10 10:19:01+00:00,253.2197,8.33,12.65,47.84626,-54.09684
2020-11-10 10:29:01+00:00,256.2747,8.35,12.65,47.84626,-54.09684
2020-11-10 10:39:01+00:00,258.7547,8.39,12.65,47.84626,-54.09684
2020-11-10 10:49:01+00:00,247.4764,8.39,12.65,47.84626,-54.09684
2020-11-10 10:59:01+00:00,238.4015,8.3,12.65,47.84626,-54.09684
2020-11-10 11:09:01+00:00,245.6014,8.3,12.65,47.84626,-54.09684
2020-11-10 11:19:01+00:00,246.2131,8.3,12.65,47.84626,-54.09684
2020-11-10 11:29:01+00:00,238.5697,8.3,12.65,47.84626,-54.09684
2020-11-10 11:39:01+00:00,235.3331,8.3,12.65,47.84626,-54.09684
2020-11-10 11:49:01+00:00,242.6131,8.3,12.65,47.84626,-54.09684
2020-11-10 11:59:01+00:00,240.8765,8.3,12.65,47.84626,-54.09684
2020-11-10 12:09:01+00:00,228.9764,8.3,12.65,47.84626,-54.09684
2020-11-10 12:19:01+00:00,226.1147,8.27,12.73,47.84626,-54.09684
2020-11-10 12:29:01+00:00,235.5781,8.27,12.73,47.84626,-54.09684
2020-11-10 12:39:01+00:00,234.9164,8.29,12.73,47.84626,-54.09684
2020-11-10 12:49:01+00:00,228.6998,8.2,12.73,47.84626,-54.09684
2020-11-10 12:59:01+00:00,227.9898,8.2,12.73,47.84626,-54.09684
2020-11-10 13:09:01+00:00,233.6548,8.2,12.73,47.84626,-54.09684
2020-11-10 13:19:01+00:00,232.6148,8.2,12.73,47.84626,-54.09684
2020-11-10 13:29:01+00:00,228.2231,8.2,12.73,47.84626,-54.09684
2020-11-10 13:39:01+00:00,230.6864,8.2,12.73,47.84626,-54.09684
2020-11-10 13:49:01+00:00,236.9197,8.2,12.73,47.84626,-54.09684
2020-11-10 13:59:01+00:00,233.2514,8.2,12.73,47.84626,-54.09684
2020-11-10 14:09:01+00:00,230.6064,8.2,12.73,47.84626,-54.09684
2020-11-10 14:19:01+00:00,236.6081,8.21,12.73,47.84626,-54.09684
2020-11-10 14:29:01+00:00,238.7598,8.26,12.73,47.84626,-54.09684
2020-11-10 14:39:01+00:00,239.0898,8.28,12.73,47.84626,-54.09684
2020-11-10 14:49:01+00:00,244.2747,8.3,12.73,47.84626,-54.09684
2020-11-10 14:59:01+00:00,248.3664,8.3,12.73,47.84626,-54.09684
2020-11-10 15:09:01+00:00,240.9448,8.3,12.73,47.84626,-54.09684
2020-11-10 15:19:01+00:00,243.4214,8.3,12.73,47.84626,-54.09684
2020-11-10 15:29:01+00:00,253.5964,8.32,12.73,47.84626,-54.09684
2020-11-10 15:39:01+00:00,256.0581,8.34,12.73,47.84626,-54.09684
2020-11-10 15:49:01+00:00,256.4414,8.35,12.73,47.84626,-54.09684
2020-11-10 15:59:01+00:00,266.7481,8.36,12.73,47.84626,-54.09684
2020-11-10 16:09:01+00:00,273.5064,8.35,12.73,47.84626,-54.09684
2020-11-10 16:19:01+00:00,273.7298,8.34,13.21,47.84626,-54.09684
2020-11-10 16:29:01+00:00,278.3647,8.36,13.21,47.84626,-54.09684
2020-11-10 16:39:01+00:00,291.953,8.35,13.21,47.84626,-54.09684
2020-11-10 16:49:01+00:00,296.2097,8.37,13.21,47.84626,-54.09684
2020-11-10 16:59:01+00:00,296.613,8.39,13.21,47.84626,-54.09684
2020-11-10 17:09:01+00:00,306.658,8.4,13.21,47.84626,-54.09684
2020-11-10 17:19:01+00:00,319.0397,8.4,13.21,47.84626,-54.09684
2020-11-10 17:29:01+00:00,317.603,8.39,13.21,47.84626,-54.09684
2020-11-10 17:39:01+00:00,313.728,8.34,13.21,47.84626,-54.09684
2020-11-10 17:49:01+00:00,325.1797,8.31,13.21,47.84626,-54.09684
2020-11-10 17:59:01+00:00,331.7396,8.3,13.21,47.84626,-54.09684
2020-11-10 18:09:01+00:00,327.573,8.3,13.21,47.84626,-54.09684
2020-11-10 18:19:01+00:00,327.6930000000001,8.3,13.37,47.84626,-54.09684
2020-11-10 18:29:01+00:00,335.8863,8.3,13.37,47.84626,-54.09684
2020-11-10 18:39:01+00:00,333.7697,8.3,13.37,47.84626,-54.09684
2020-11-10 18:49:01+00:00,330.4197,8.3,13.37,47.84626,-54.09684
2020-11-10 18:59:01+00:00,336.7313,8.3,13.37,47.84626,-54.09684
2020-11-10 19:09:01+00:00,340.8713,8.3,13.37,47.84626,-54.09684
2020-11-10 19:19:01+00:00,337.9745,8.3,13.13,47.84626,-54.09684
2020-11-10 19:29:01+00:00,334.8813,8.3,13.13,47.84626,-54.09684
2020-11-10 19:39:01+00:00,338.6096,8.3,13.13,47.84626,-54.09684
2020-11-10 19:49:01+00:00,338.7812,8.3,13.13,47.84626,-54.09684
2020-11-10 19:59:01+00:00,335.7346,8.3,13.13,47.84626,-54.09684
2020-11-10 20:09:01+00:00,336.2496,8.3,13.13,47.84626,-54.09684
2020-11-10 20:19:01+00:00,336.218,8.3,12.89,47.84626,-54.09684
2020-11-10 20:29:01+00:00,333.158,8.3,12.89,47.84626,-54.09684
2020-11-10 20:39:01+00:00,330.05300000000005,8.3,12.89,47.84626,-54.09684
2020-11-10 20:49:01+00:00,330.8697,8.3,12.89,47.84626,-54.09684
2020-11-10 20:59:01+00:00,329.6863,8.3,12.89,47.84626,-54.09684
2020-11-10 21:09:01+00:00,323.728,8.3,12.89,47.84626,-54.09684
2020-11-10 21:19:01+00:00,319.2397,8.3,12.81,47.84626,-54.09684
2020-11-10 21:29:01+00:00,317.6979,8.3,12.81,47.84626,-54.09684
2020-11-10 21:39:01+00:00,311.4064,8.3,12.81,47.84626,-54.09684
2020-11-10 21:49:01+00:00,303.5597,8.3,12.81,47.84626,-54.09684
2020-11-10 21:59:01+00:00,303.523,8.3,12.81,47.84626,-54.09684
2020-11-10 22:09:01+00:00,299.8897,8.3,12.81,47.84626,-54.09684
2020-11-10 22:19:01+00:00,288.623,8.3,12.81,47.84626,-54.09684
2020-11-10 22:29:01+00:00,285.173,8.3,12.81,47.84626,-54.09684
2020-11-10 22:39:01+00:00,286.3164,8.3,12.81,47.84626,-54.09684
2020-11-10 22:49:01+00:00,279.6481,8.1,12.81,47.84626,-54.09684
2020-11-10 22:59:01+00:00,263.7548,8.1,12.81,47.84626,-54.09684
2020-11-10 23:09:01+00:00,260.7531,8.1,12.81,47.84626,-54.09684
2020-11-10 23:19:01+00:00,260.5865,8.1,12.73,47.84626,-54.09684
2020-11-10 23:29:01+00:00,250.9664,8.09,12.73,47.84626,-54.09684
2020-11-10 23:39:01+00:00,242.0731,8.08,12.73,47.84626,-54.09684
2020-11-10 23:49:01+00:00,239.6064,8.07,12.73,47.84626,-54.09684
2020-11-10 23:59:01+00:00,236.4964,8.09,12.73,47.84626,-54.09684
